Home   Weather   Kraków   Past weeks

Flag for Poland Past Weather in Kraków, Poland — Yesterday and Last 2 Weeks

Now
43 °F

Mostly cloudy.


Feels Like: 34 °F
Forecast: 39 / 49 °F
Wind: 18 mph from West

Location: Krakow Airport

Current Time: Dec 9, 2016 at 4:36:47 pm

Latest Report: Dec 9, 2016 at 4:00 pm


Visibility: N/A

Pressure: 30.18 "Hg

Humidity: 76%

Dew Point: 36 °F

Location of KrakówLocation

Past Weather in Kraków — Graph

°F

Kraków Temperature Yesterday

Maximum temperature yesterday: 45 °F (at 12:30 pm)
Minimum temperature yesterday: 28 °F (at 12:00 am)
Average temperature yesterday: 39 °F

High & Low Weather Summary for the Past Weeks

 TemperatureHumidityPressure
High46 °F (Nov 24, 3:00 pm)100% (Nov 25, 6:00 am)30.63 "Hg (Nov 25, 6:00 am)
Low16 °F (Nov 29, 2:30 am)42% (Dec 8, 10:30 pm)29.45 "Hg (Dec 2, 4:00 am)
Average34 °F84%30.17 "Hg
* Reported Nov 24 3:00 pm — Dec 9 3:30 pm, Kraków, Weather by CustomWeather, © 2016

Note: Actual official high and low records may vary slightly from our data, if they occured in-between our weather recording intervals... More about our weather records

Advertising

Kraków Weather History for the Previous 24 Hours

Scroll right to see more
 ConditionsComfort  
Time TempWeatherWind HumidityBarometerVisibility
3:30 pm
Fri, Dec 9
43 °FBroken clouds.21 mph81%30.18 "HgN/A
3:00 pm43 °FPartly sunny.16 mph76%30.18 "HgN/A
2:30 pm41 °FLight rain. Broken clouds.16 mph81%30.18 "Hg5 mi
2:00 pm45 °FPartly sunny.17 mph61%30.18 "HgN/A
1:30 pm43 °FPartly sunny.20 mph71%30.18 "HgN/A
1:00 pm45 °FPartly sunny.20 mph61%30.18 "HgN/A
12:30 pm45 °FPartly sunny.20 mph61%30.18 "HgN/A
12:00 pm45 °FPartly sunny.13 mph57%30.18 "HgN/A
11:30 am43 °FPartly sunny.16 mph57%30.21 "HgN/A
11:00 am45 °FPartly sunny.20 mph53%30.18 "HgN/A
10:30 am43 °FPassing clouds.18 mph57%30.21 "HgN/A
10:00 am43 °FSunny.18 mph61%30.21 "Hg10 mi
9:30 am43 °FSunny.21 mph57%30.21 "Hg10 mi
9:00 am41 °FSunny.20 mph61%30.18 "Hg10 mi
8:30 am41 °FSunny.15 mph61%30.18 "Hg10 mi
8:00 am39 °FSunny.10 mph61%30.21 "Hg10 mi
7:30 am37 °FSunny.9 mph70%30.21 "Hg10 mi
7:00 am37 °FClear.9 mph70%30.18 "Hg10 mi
6:30 am39 °FClear.13 mph65%30.21 "Hg10 mi
5:30 am37 °FPassing clouds.10 mph75%30.21 "HgN/A
5:00 am39 °FLight rain. Passing clouds.15 mph75%30.21 "HgN/A
4:30 am39 °FLight rain. Passing clouds.13 mph70%30.21 "HgN/A
4:00 am43 °FLight rain. Passing clouds.13 mph49%30.21 "HgN/A
3:30 am43 °FPassing clouds.14 mph49%30.21 "HgN/A
3:00 am43 °FPartly cloudy.16 mph49%30.21 "HgN/A
2:30 am45 °FPassing clouds.16 mph46%30.21 "HgN/A
2:00 am45 °FPassing clouds.16 mph42%30.21 "HgN/A
1:30 am45 °FPassing clouds.17 mph42%30.21 "HgN/A
1:00 am45 °FPassing clouds.17 mph42%30.21 "HgN/A
12:30 am45 °FPassing clouds.21 mph42%30.21 "HgN/A
12:00 am45 °FPassing clouds.18 mph42%30.21 "HgN/A
11:30 pm
Thu, Dec 8
45 °FPassing clouds.18 mph42%30.24 "HgN/A
11:00 pm45 °FPassing clouds.18 mph42%30.24 "HgN/A
10:30 pm45 °FClear.16 mph42%30.24 "Hg10 mi
10:00 pm45 °FClear.13 mph46%30.24 "Hg10 mi
9:30 pm43 °FPassing clouds.8 mph49%30.24 "HgN/A
9:00 pm41 °FClear.9 mph53%30.24 "Hg10 mi
8:30 pm41 °FClear.8 mph53%30.24 "Hg10 mi
8:00 pm43 °FPassing clouds.9 mph49%30.24 "HgN/A
7:30 pm43 °FClear.17 mph49%30.27 "Hg10 mi
7:00 pm43 °FClear.18 mph49%30.27 "Hg10 mi
6:30 pm41 °FClear.15 mph57%30.27 "Hg10 mi
6:00 pm41 °FClear.10 mph61%30.27 "Hg10 mi
5:30 pm41 °FClear.10 mph66%30.27 "Hg10 mi
5:00 pm41 °FClear.10 mph66%30.27 "Hg10 mi
4:30 pm41 °FClear.9 mph66%30.27 "Hg10 mi
4:00 pm41 °FClear.10 mph66%30.27 "Hg10 mi
Weather by CustomWeather, © 2016

See weather overviewHow to use our weather pages